Weather in Kochki

Russia / Novosibirsk Oblast     54°20′04″N   80°29′06″E
temp.,
°C
wind,
m/s
gust,
m/s
humid.,
%
clouds,
%
prec.,
mm/h
press.,
hPa
HPBL,
m
27 february, sat
sat2701:00−26sw51095100 0.1 1036372
04:00−26sw4995100 0.0 1036334
07:00−26sw4896100 0.1 1037302
10:00−26sw4896100 0.1 1037323
13:00−25sw4795100 0.1 1038349
16:00−24sw369295 0.0 1038357
19:00−27ssw349661 0.0 103833
22:00−29ssw34960 0.0 103837
28 february, sun
sun2801:00−29ssw34970 0.0 103843
04:00−28sse349830 0.0 103746
07:00−28sse459435 0.0 103773
10:00−26se599249 0.0 1034190
13:00−21sse599175 0.0 1031270
16:00−16sse61189100 0.0 1027432
19:00−12sse61194100 0.3 1023616
22:00−10sse71392100 0.4 1019540
1 march, mon
mon101:00−8sse71393100 1.0 1015524
04:00−6sse61295100 1.1 1011565
07:00−3s81695100 3.6 1007806
10:000sw91597100 1.5 1006898
13:000sw91598100 2.3 1006989
16:000wsw81397100 1.1 1007910
19:00−1wsw61295100 1.6 1008673
22:00−4nw3697100 1.2 1011282
2 march, tue
tue201:00−8wnw359799 1.8 1013131
04:00−13w349798 0.1 101673
07:00−16w339899 0.1 101836
10:00−17sw2398100 0.0 101853
13:00−13sw239399 0.1 1018253
16:00−12sw1291100 0.0 1017266
19:00−15n1196100 0.1 101620
22:00−14ene2296100 0.0 101526
3 march, wed
wed301:00−12ene1297100 0.1 101338
04:00−12n1296100 0.6 101239
07:00−13nnw1196100 0.9 101420
10:00−13wsw229699 0.4 1014105
13:00−11wsw359399 0.7 1015399
16:00−11wsw4692100 0.2 1016554
19:00−12wsw3696100 0.4 1019198
22:00−15wsw369781 0.1 1021109